CZ-6A DEB, 61147

Orbit data source: Space-Track

CZ-6A DEB, 61147 is space debris in LEO originally from a launch on Tue, 06 Aug 2024 UTC launched from the Taiyaun Space Center, China (TSC). Debris objects in space refer to the collection of defunct objects orbiting the Earth. Examples of debris include non-operational satellites, rocket bodies, and fragments generated from explosions, collisions, or faulty payload assembly.

Loading next visibility...
Identifier
61147, 2024-140QR
Orbit
LEO
Country
Flag of CNCN / PRC
Related business
Manufacturer
SAST
Mission
Spacecraft
Bus & Motor
Unknown
Mass
Unknown
Launch date (UTC)
2024-08-06 (1 year ago)
Launch vehicle
Unknown
Launch site
Taiyaun Space Center, China (TSC)
Object type
Payload
Rocket body
Debris
Shape & HBR
Unknown shape, 0.1 m
Radar Cross Section
Small (<0.1 m²)

Expand to show TLE details & history
Last TLE update: 15 hours ago

TLE from 15 hours ago
0 CZ-6A DEB
1 61147U 24140QR  25350.29076058  .00000271  00000-0  13883-3 0  9998
2 61147  88.9670 294.2626 0088793  91.8273 269.3084 14.10379950 67830
Epoch: 2025-12-16T06:58Z
TLE epoch observation values (Epoch: 2025-12-16T06:58:41.714Z)
Latitude
-0°
Longitude
104.4117°
Altitude
862.458 km
Speed
7.421 km/s
True Right ascension
19h 37m 03s
True Declination
0° 00' 00"
Sunlit
Object was in daylight at epoch
Visualization orbit readout
Latitude
Unknown
Longitude
Unknown
Altitude
Unknown
Speed
Unknown
Apparent Right ascension
Unknown
Apparent Declination
Unknown
Sunlit
N/A
Visualization observer readout
Local Sidereal Time
20:56:07
Azimuth
Unknown
Elevation
Unknown
Doppler factor
Unknown
Orbital elements
Apogee altitude
919.262 km
Perigee altitude
790.811 km
Semi-major axis
7,233.174 km
Eccentricity
0.00888
Inclination
88.967°
RAAN
294.2626°
Arg. of periapsis
91.8273°
True anomaly
268.29117°
Mean anomaly
269.3084°
Eccentric anomaly
268.79977°
Mean motion
3.52817 °/min
Orbital period
102.04 mins
BSTAR
0.00013883
Loading maneuver chart data...
Computing Atmospheric mass density...
Loading historical data...
Loading historical data...
Loading historical data...
Loading historical data...
Loading historical data...
Loading historical data...
Loading historical data...

Documentation

Showing up to 5 results
|